Clayton Lake, ME

4:57 AM EST on December 13, 2017 (GMT -0500)
Clayton Lake

Weather History for K40B - January, 2013

Change the Weather History Date:

Saturday, January 5, 2013

  Actual Average Record
Temperature  
Mean Temperature 4 °F -  
Max Temperature 26 °F 19 °F 34 °F (2000)
Min Temperature -15 °F 0 °F -27 °F (2016)
Degree Days  
Heating Degree Days 62    
Moisture  
Dew Point -3 °F    
Average Humidity 78    
Maximum Humidity 89    
Minimum Humidity 63    
Precipitation  
Precipitation 0.82 in - - ()
Sea Level Pressure  
Sea Level Pressure 29.99 in    
Wind  
Wind Speed 3 mph (West)    
Max Wind Speed 10 mph    
Max Gust Speed 24 mph    
Averages and records for this station are not official NWS values.
T = Trace of Precipitation, MM = Missing Value Source: NWS Daily Summary

Daily Weather History Graph

Daily Weather History Graph

Search for Another Location

Airport or City:

Trip Planner

Search our weather history database for the weather conditions in past years. The results will help you decide how hot, cold, wet, or windy it might be!

Date:

Astronomy

Jan. 05, 2013 Rise Set
Actual Time 7:22 AM EST 4:05 PM EST
Civil Twilight 6:47 AM EST 4:40 PM EST
Nautical Twilight 6:09 AM EST 5:18 PM EST
Astronomical Twilight 5:32 AM EST 5:54 PM EST
Moon 12:11 AM EST (1/5) 11:04 AM EST (1/5)
Length of Visible Light 9h 52m
Length of Day
8h 43m
Last Quarter, 44% of the Moon is Illuminated
Jan 5
Last Quarter
Jan 11
New
Jan 18
First Quarter
Jan 26
Full
Feb 3
Last Quarter

Hourly Weather History & Observations

Time (EST) Temp. Windchill Dew Point Humidity Pressure Visibility Wind Dir Wind Speed Gust Speed Precip Events Conditions
12:25 AM - - - N/A% 29.57 in - Calm Calm - 0.00 in   Unknown
1:25 AM - - - N/A% 29.55 in - Calm Calm - N/A   Unknown
2:25 AM - - - N/A% 29.55 in - Variable 4.6 mph 15.0 mph 0.01 in   Unknown
3:25 AM - - - N/A% 29.57 in - Variable 4.6 mph 18.4 mph 0.07 in   Unknown
4:25 AM - - - N/A% 29.64 in - Variable 3.5 mph - 0.07 in   Unknown
5:25 AM - - - N/A% 29.69 in - Variable 2.3 mph - N/A   Unknown
6:25 AM 20.7 °F 11.0 °F - N/A% 29.74 in - WSW 8.1 mph 18.4 mph 0.03 in   Unknown
7:25 AM 13.8 °F 6.2 °F 11.1 °F 89% 29.86 in - Variable 4.6 mph 20.7 mph 0.12 in   Unknown
8:25 AM 11.8 °F 3.9 °F 8.6 °F 87% 29.95 in - Variable 4.6 mph 12.7 mph 0.09 in   Unknown
9:25 AM 11.3 °F 0.7 °F 7.3 °F 84% 30.01 in - WNW 6.9 mph 16.1 mph 0.08 in   Unknown
10:25 AM 11.1 °F 3.1 °F 6.4 °F 81% 30.07 in - Variable 4.6 mph 20.7 mph 0.03 in   Unknown
11:25 AM 11.8 °F 0.3 °F 3.9 °F 71% 30.07 in - WSW 8.1 mph 24.2 mph 0.07 in   Unknown
12:28 PM 11.7 °F -1.7 °F 1.2 °F 63% 30.09 in - West 10.4 mph 21.9 mph 0.03 in   Unknown
1:29 PM 12.6 °F 4.8 °F 3.0 °F 66% 30.13 in - Variable 4.6 mph 15.0 mph 0.06 in   Unknown
2:25 PM 11.7 °F 0.0 °F 1.6 °F 64% 30.15 in - WSW 8.1 mph 18.4 mph 0.06 in   Unknown
3:29 PM 9.7 °F -0.1 °F -0.0 °F 65% 30.17 in - Variable 5.8 mph 15.0 mph 0.06 in   Unknown
4:25 PM 6.8 °F -0.1 °F -0.2 °F 73% 30.19 in - Variable 3.5 mph - 0.01 in   Unknown
5:25 PM 0.7 °F - -3.3 °F 83% 30.22 in - Calm Calm - N/A   Unknown
6:26 PM -4.2 °F - -7.6 °F 85% 30.24 in - Calm Calm - 0.01 in   Unknown
7:25 PM -7.2 °F - -10.7 °F 85% 30.25 in - Calm Calm - 0.01 in   Unknown
8:25 PM -8.9 °F - -12.1 °F 86% 30.25 in - Calm Calm - 0.00 in   Unknown
9:25 PM -12.5 °F - -16.2 °F 83% 30.25 in - Calm Calm - N/A   Unknown
10:25 PM -13.5 °F - -17.1 °F 84% 30.26 in - Calm Calm - 0.01 in   Unknown
11:25 PM -15.0 °F - -20.2 °F 77% 30.26 in - Calm Calm - N/A   Unknown